Bloomington, IN

2:38 AM EDT on October 22, 2019 (GMT -0400)
Monroe County

Weather History for KBMG - August, 2019

Change the Weather History Date:

Tuesday, August 20, 2019

  Actual Average Record
Temperature  
Mean Temperature 78 °F 73 °F  
Max Temperature 88 °F 85 °F 93 °F (2007)
Min Temperature 69 °F 61 °F 51 °F (2012)
Degree Days  
Heating Degree Days 0 0  
Month to date heating degree days 0 0  
Since 1 June heating degree days 14 17  
Since 1 July heating degree days 0 2  
Cooling Degree Days 14 8  
Month to date cooling degree days 197 175  
Year to date cooling degree days 904 741  
Since 1 June cooling degree days 773 659  
Growing Degree Days 28 (Base 50)    
Moisture  
Dew Point 68 °F    
Average Humidity 83    
Maximum Humidity 93    
Minimum Humidity 63    
Precipitation  
Precipitation 0.27 in 0.12 in 0.81 in (2004)
Month to date precipitation 1.57 2.13  
Year to date precipitation 33.61 31.80  
Sea Level Pressure  
Sea Level Pressure 30.04 in    
Wind  
Wind Speed 4 mph ()    
Max Wind Speed 23 mph    
Max Gust Speed 41 mph    
Visibility 8.8 miles    
Events Rain , Thunderstorm    
T = Trace of Precipitation, MM = Missing Value Source: Averaged Metar Reports

Daily Weather History Graph

Daily Weather History Graph

Search for Another Location

Airport or City:

Astronomy

Aug. 20, 2019 Rise Set
Actual Time 7:04 AM EDT 8:35 PM EDT
Civil Twilight 6:35 AM EDT 9:03 PM EDT
Nautical Twilight 6:01 AM EDT 9:37 PM EDT
Astronomical Twilight 5:25 AM EDT 10:12 PM EDT
Moon 11:25 PM EDT (8/20) 11:39 AM EDT (8/20)
Length of Visible Light 14h 27m
Length of Day
13h 31m
Waning Gibbous, 78% of the Moon is Illuminated
Aug 20
Waning Gibbous
Aug 23
Last Quarter
Aug 30
New
Sep 5
First Quarter
Sep 14
Full

Hourly Weather History & Observations

Time (EDT) Temp. Heat Index Dew Point Humidity Pressure Visibility Wind Dir Wind Speed Gust Speed Precip Events Conditions
12:53 AM 73.0 °F - 71.1 °F 93% 30.04 in 8.0 mi Calm Calm - N/A   Clear
1:53 AM 73.0 °F - 71.1 °F 93% 30.03 in 7.0 mi Calm Calm - N/A   Scattered Clouds
2:53 AM 73.0 °F - 70.0 °F 90% 30.02 in 10.0 mi Calm Calm - N/A   Clear
3:53 AM 71.1 °F - 69.1 °F 93% 30.02 in 5.0 mi Calm Calm - N/A   Clear
4:53 AM 75.9 °F - 69.1 °F 79% 30.03 in 10.0 mi Calm Calm - N/A   Mostly Cloudy
5:53 AM 73.9 °F - 70.0 °F 87% 30.02 in 10.0 mi Calm Calm - N/A   Scattered Clouds
6:53 AM 73.9 °F - 70.0 °F 87% 30.01 in 10.0 mi Calm Calm - N/A Thunderstorm Mostly Cloudy
7:53 AM 75.9 °F - 71.1 °F 85% 30.02 in 10.0 mi Calm Calm - N/A   Mostly Cloudy
8:53 AM 79.0 °F - 73.0 °F 82% 30.04 in 10.0 mi South 5.8 mph - N/A   Partly Cloudy
9:53 AM 82.0 °F 87.4 °F 73.0 °F 74% 30.04 in 10.0 mi SSW 6.9 mph - N/A   Clear
10:53 AM 84.9 °F 92.1 °F 73.9 °F 69% 30.05 in 10.0 mi SSW 8.1 mph - N/A   Clear
11:53 AM 87.1 °F 96.3 °F 75.0 °F 67% 30.03 in 10.0 mi South 6.9 mph - N/A   Scattered Clouds
12:53 PM 87.1 °F 95.4 °F 73.9 °F 65% 30.03 in 10.0 mi SSW 9.2 mph - N/A   Mostly Cloudy
1:26 PM 84.9 °F 92.1 °F 73.9 °F 69% 30.05 in 10.0 mi SW 9.2 mph - N/A Thunderstorm Mostly Cloudy
1:53 PM 82.9 °F 87.0 °F 70.0 °F 65% 30.02 in 10.0 mi West 10.4 mph - N/A Thunderstorm Clear
2:10 PM 79.0 °F - 69.1 °F 72% 30.05 in 10.0 mi WSW 12.7 mph 21.9 mph N/A   Scattered Clouds
2:25 PM 78.1 °F - 66.9 °F 68% 30.06 in 10.0 mi WNW 13.8 mph 25.3 mph N/A Thunderstorm Scattered Clouds
2:46 PM 73.0 °F - 64.9 °F 76% 30.09 in 9.0 mi NW 12.7 mph 33.4 mph 0.00 in Rain , Thunderstorm Light Thunderstorms and Rain
2:53 PM 71.1 °F - 66.0 °F 84% 30.09 in 5.0 mi WNW 11.5 mph 29.9 mph 0.03 in Rain , Thunderstorm Thunderstorms and Rain
3:05 PM 70.0 °F - 64.9 °F 84% 30.10 in 2.5 mi WNW 11.5 mph 26.5 mph 0.08 in Rain , Thunderstorm Thunderstorms and Rain
3:17 PM 69.1 °F - 64.9 °F 87% 30.10 in 3.0 mi WNW 11.5 mph 24.2 mph 0.13 in Rain , Thunderstorm Rain
3:26 PM 69.1 °F - 64.9 °F 87% 30.10 in 4.0 mi NW 8.1 mph 19.6 mph 0.16 in Rain , Thunderstorm Thunderstorms and Rain
3:49 PM 69.8 °F - 64.4 °F 83% 30.09 in 7.0 mi NW 5.8 mph - 0.20 in Rain Light Rain
3:53 PM 69.1 °F - 64.9 °F 87% 30.08 in 7.0 mi WNW 6.9 mph - 0.20 in Rain Rain
4:03 PM 69.1 °F - 64.9 °F 87% 30.09 in 9.0 mi WNW 4.6 mph - 0.01 in Rain , Thunderstorm Light Rain
4:18 PM 69.1 °F - 64.9 °F 87% 30.09 in 10.0 mi WNW 5.8 mph - 0.03 in Rain Light Rain
4:53 PM 70.0 °F - 66.0 °F 87% 30.05 in 10.0 mi SE 8.1 mph - 0.04 in Rain Light Rain
5:53 PM 71.1 °F - 66.9 °F 87% 29.98 in 10.0 mi SE 8.1 mph - 0.00 in   Clear
6:53 PM 72.0 °F - 68.0 °F 87% 29.98 in 10.0 mi South 6.9 mph - N/A   Partly Cloudy
7:53 PM 71.1 °F - 66.9 °F 87% 29.95 in 10.0 mi South 5.8 mph - N/A   Clear
8:53 PM 69.1 °F - 66.0 °F 90% 29.96 in 10.0 mi South 4.6 mph - N/A   Clear
9:53 PM 70.0 °F - 66.9 °F 90% 29.98 in 10.0 mi SSW 5.8 mph - N/A   Overcast
10:05 PM 70.0 °F - 66.9 °F 90% 30.00 in 10.0 mi SW 6.9 mph - N/A   Overcast
10:24 PM 70.0 °F - 66.9 °F 90% 30.01 in 10.0 mi SW 10.4 mph - N/A   Mostly Cloudy
10:53 PM 70.0 °F - 66.9 °F 90% 29.99 in 10.0 mi SW 9.2 mph - N/A   Overcast
11:53 PM 70.0 °F - 66.9 °F 90% 30.01 in 10.0 mi WSW 8.1 mph - N/A   Overcast